Ellsworth AFB, SD

5:14 PM MST on November 18, 2017 (GMT -0700)
Ellsworth Air Force Base

Weather History for KRCA - November, 2013

Change the Weather History Date:

Tuesday, November 19, 2013

  Actual Average Record
Temperature  
Mean Temperature 48 °F -  
Max Temperature 63 °F 42 °F 66 °F (2003)
Min Temperature 33 °F 22 °F 1 °F (2011)
Degree Days  
Heating Degree Days 17    
Moisture  
Dew Point 26 °F    
Average Humidity 54    
Maximum Humidity 75    
Minimum Humidity 23    
Precipitation  
Precipitation 0.00 in - - ()
Sea Level Pressure  
Sea Level Pressure 29.66 in    
Wind  
Wind Speed 4 mph (NW)    
Max Wind Speed 9 mph    
Max Gust Speed -    
Visibility 10 miles    
Events      
Averages and records for this station are not official NWS values.
T = Trace of Precipitation, MM = Missing Value Source: NWS Daily Summary

Daily Weather History Graph

Daily Weather History Graph

Search for Another Location

Airport or City:

Trip Planner

Search our weather history database for the weather conditions in past years. The results will help you decide how hot, cold, wet, or windy it might be!

Date:

Astronomy

Nov. 19, 2013 Rise Set
Actual Time 6:53 AM MST 4:21 PM MST
Civil Twilight 6:21 AM MST 4:53 PM MST
Nautical Twilight 5:46 AM MST 5:28 PM MST
Astronomical Twilight 5:12 AM MST 6:03 PM MST
Moon 6:14 PM MST 8:35 AM MST
Length of Visible Light 10h 31m
Length of Day
9h 28m
Waning Gibbous, 96% of the Moon is Illuminated
Nov 19
Waning Gibbous
Nov 25
Last Quarter
Dec 2
New
Dec 9
First Quarter
Dec 17
Full

Hourly Weather History & Observations

Time (MST) Temp. Windchill Dew Point Humidity Pressure Visibility Wind Dir Wind Speed Gust Speed Precip Events Conditions
12:58 AM 37.9 °F - 24.1 °F 57% 29.82 in 10.0 mi Variable 2.3 mph - N/A   Scattered Clouds
1:58 AM 35.4 °F - 24.1 °F 63% 29.81 in 10.0 mi East 2.3 mph - N/A   Scattered Clouds
2:58 AM 33.3 °F 28.9 °F 23.9 °F 69% 29.78 in 10.0 mi West 4.6 mph - N/A   Clear
3:58 AM 33.3 °F - 24.4 °F 70% 29.75 in 10.0 mi WSW 2.3 mph - N/A   Scattered Clouds
4:58 AM 33.4 °F - 25.5 °F 73% 29.75 in 10.0 mi Calm Calm - N/A   Scattered Clouds
5:58 AM 34.0 °F 27.2 °F 27.0 °F 75% 29.72 in 10.0 mi WNW 8.1 mph - N/A   Mostly Cloudy
6:58 AM 34.7 °F 30.6 °F 26.6 °F 72% 29.71 in 10.0 mi NW 4.6 mph - N/A   Overcast
7:55 AM 39.2 °F 35.9 °F 24.8 °F 56% 29.63 in 10.0 mi East 4.6 mph - N/A   Partly Cloudy
8:55 AM 41.0 °F 38.0 °F 26.6 °F 57% 29.62 in 10.0 mi ENE 4.6 mph - N/A   Partly Cloudy
9:55 AM 48.2 °F - 28.4 °F 46% 29.58 in 10.0 mi ESE 6.9 mph - N/A   Partly Cloudy
10:58 AM 57.4 °F - 30.7 °F 36% 29.58 in 10.0 mi ESE 2.3 mph - N/A   Scattered Clouds
11:58 AM 59.2 °F - 26.8 °F 29% 29.56 in 10.0 mi ENE 3.5 mph - N/A   Scattered Clouds
12:58 PM 63.5 °F - 24.6 °F 23% 29.54 in 10.0 mi ENE 6.9 mph - N/A   Clear
1:58 PM 59.5 °F - 28.2 °F 30% 29.55 in 10.0 mi NE 2.3 mph - N/A   Mostly Cloudy
2:58 PM 55.0 °F - 25.9 °F 33% 29.59 in 10.0 mi NE 8.1 mph - N/A   Clear
3:58 PM 52.3 °F - 28.6 °F 40% 29.62 in 10.0 mi North 9.2 mph - N/A   Partly Cloudy
4:58 PM 47.5 °F - 28.6 °F 48% 29.65 in 10.0 mi West 4.6 mph - N/A   Partly Cloudy
5:58 PM 42.3 °F 36.8 °F 29.5 °F 61% 29.66 in 10.0 mi NW 9.2 mph - N/A   Mostly Cloudy
6:58 PM 41.5 °F 36.4 °F 27.7 °F 58% 29.67 in 10.0 mi WNW 8.1 mph - N/A   Clear
7:58 PM 41.5 °F 39.6 °F 26.8 °F 56% 29.62 in 10.0 mi West 3.5 mph - N/A   Clear
8:58 PM 39.6 °F 36.3 °F 25.9 °F 58% 29.63 in 10.0 mi WSW 4.6 mph - N/A   Clear
9:58 PM 42.3 °F 38.6 °F 25.2 °F 51% 29.67 in 10.0 mi WNW 5.8 mph - N/A   Clear
10:58 PM 34.0 °F 28.8 °F 24.6 °F 69% 29.68 in 10.0 mi West 5.8 mph - N/A   Clear
11:58 PM 36.3 °F 31.6 °F 24.3 °F 62% 29.68 in 10.0 mi West 5.8 mph - N/A   Clear